GFSCGP_500_spd_000.txt.gz
Wind_Speed
21 25 19 18 19 18 19 19 16 17 17 14 12 14 19 14 17 15 16 17 21 22 23 25 24 27 28 29 32 24 21 22 24 21 25 23 22 18 17 17 19 14 20 28
24 23 18 22 24 22 24 22 21 20 17 16 18 15 25 16 17 13 12 17 22 21 21 22 21 24 26 27 29 24 20 20 24 21 19 20 23 24 22 19 21 27 33 31
25 17 24 26 26 24 23 21 21 22 19 19 20 14 22 22 15 11 14 18 23 20 19 20 17 21 23 26 27 23 19 17 23 25 20 19 21 22 26 29 32 26 31 36
28 21 25 26 25 25 24 20 20 23 23 24 22 21 16 22 17 10 12 17 22 20 16 19 14 19 20 23 25 23 18 16 20 25 25 22 21 22 25 33 28 34 31 29
18 23 26 25 22 23 15 18 24 27 27 28 20 26 14 22 12 5 14 20 22 20 14 16 12 15 16 20 21 22 18 13 16 21 24 26 25 23 21 31 32 20 27 29
26 27 28 24 23 21 15 18 24 25 29 27 12 25 20 17 13 7 13 18 20 18 12 13 10 12 14 16 18 20 16 13 13 17 21 25 27 25 26 27 27 28 28 32
25 30 30 30 28 22 23 17 26 30 30 19 11 24 7 13 13 9 13 14 16 15 8 10 9 8 12 14 16 17 17 18 12 13 16 19 25 25 24 24 25 25 26 26
25 30 26 25 28 25 24 21 25 25 20 12 18 17 12 7 13 12 10 11 12 8 6 8 7 5 10 12 14 16 19 20 17 15 13 15 15 22 23 20 22 23 28 30
27 28 19 24 27 27 28 27 16 20 18 23 23 20 10 5 14 10 8 10 9 4 5 6 6 2 7 10 12 15 15 16 23 17 16 15 15 15 16 19 21 23 23 25
26 27 19 25 30 26 31 24 24 26 24 26 22 16 9 14 11 2 6 8 6 1 3 4 5 3 7 10 12 15 16 14 17 22 21 15 15 16 16 16 18 19 21 21
16 28 22 28 33 33 33 35 36 29 29 25 22 19 17 15 10 4 9 4 2 2 2 3 4 4 9 10 10 14 16 15 17 16 17 22 16 17 17 17 18 19 20 18
19 19 30 30 33 35 32 37 39 36 28 26 26 22 19 16 13 6 6 5 3 4 3 3 4 5 7 10 10 11 15 15 17 18 19 21 25 23 24 25 24 24 23 22
26 32 35 39 35 41 43 43 41 44 33 25 28 18 14 18 15 20 6 7 4 4 5 5 5 5 5 9 11 10 13 14 15 17 19 20 21 23 23 23 23 22 21 21
36 36 38 45 33 34 40 38 35 30 28 31 28 19 14 17 10 16 9 10 7 4 4 5 6 6 6 8 10 11 11 12 13 16 17 18 19 20 20 21 22 22 22 21
46 45 36 30 31 32 32 32 34 38 24 34 27 21 13 18 14 8 16 16 11 9 4 6 6 6 8 9 8 9 9 10 10 13 16 17 17 17 18 18 19 20 20 20
43 40 48 52 43 36 36 35 37 34 26 30 31 23 15 22 22 20 18 17 13 10 7 6 7 7 6 10 11 8 6 6 7 8 12 13 13 14 15 15 16 16 17 17
34 45 50 52 52 49 48 37 33 30 21 30 30 18 19 29 24 22 17 13 12 10 9 9 11 10 8 10 10 9 5 3 4 6 6 9 10 11 11 11 11 11 12 11
55 56 55 46 52 53 44 39 31 27 30 26 26 20 27 22 12 17 18 18 17 15 11 10 12 12 10 10 12 10 7 4 2 4 5 6 6 6 5 5 4 4 5 4
47 61 62 56 54 53 47 36 36 38 32 19 22 26 32 24 22 18 16 19 17 19 17 13 13 14 13 13 13 14 11 7 4 4 3 3 3 4 3 3 1 1 2 3
59 49 64 62 61 57 44 34 34 32 36 35 32 27 32 31 28 21 21 18 18 18 20 16 13 15 16 16 15 15 14 12 9 7 5 4 3 2 1 2 2 4 5 6
61 61 58 65 65 62 53 34 40 40 37 34 39 36 36 39 28 20 26 20 21 18 19 20 15 13 16 19 18 18 19 16 16 14 12 9 8 6 5 5 5 5 7 8
65 60 63 64 59 55 52 38 33 28 36 31 35 34 46 43 35 29 29 18 19 18 18 20 17 15 14 16 21 20 20 22 21 19 17 15 13 11 9 10 9 9 9 9
65 53 57 57 49 45 44 45 39 30 32 33 35 27 42 46 39 34 23 25 22 22 26 24 18 19 18 16 18 20 22 21 22 20 18 17 16 14 14 14 15 13 12 12
61 53 61 55 48 48 46 47 40 39 36 25 34 37 37 38 38 31 24 30 34 29 39 35 21 19 21 20 17 18 21 21 21 22 22 21 20 20 20 19 18 16 15 14
62 60 41 38 46 47 40 40 40 36 35 34 30 26 35 46 35 31 33 33 30 35 31 25 21 23 20 21 22 22 19 18 18 20 21 21 22 21 22 22 21 19 19 16
65 59 52 47 45 40 38 40 33 22 30 29 30 20 22 28 39 44 36 39 39 30 27 35 35 24 27 24 27 26 23 19 18 19 20 21 21 23 24 24 23 21 19 18

GFSCGP_500_spd_003.txt.gz
Wind_Speed
32 32 25 25 25 26 27 25 23 17 23 25 22 19 21 14 16 11 15 14 21 21 21 24 26 26 29 30 28 22 21 21 15 17 19 23 20 21 18 11 11 19 12 5
30 26 22 23 26 29 29 26 25 21 27 27 24 19 19 16 16 9 14 15 20 21 20 22 24 24 26 27 27 20 19 20 14 14 19 22 18 16 20 19 25 28 26 29
27 18 23 29 31 31 27 27 27 23 27 28 26 24 19 21 15 8 15 13 16 21 19 20 23 21 23 25 25 18 15 19 17 16 17 22 24 26 21 24 23 31 28 33
31 25 28 32 29 29 26 29 29 25 28 30 24 23 19 21 20 13 12 15 15 19 19 17 21 19 20 22 22 17 12 16 17 17 17 21 22 29 23 23 33 35 28 33
25 24 28 31 25 26 26 27 27 22 29 31 27 26 19 19 18 15 12 13 14 16 18 15 18 16 17 19 19 16 11 14 16 18 20 24 19 32 25 17 20 26 33 26
25 27 33 28 29 30 27 21 22 26 31 33 27 28 27 17 13 12 12 11 11 14 14 12 15 12 14 16 16 15 11 10 14 16 24 23 25 24 25 26 24 18 15 21
23 26 32 30 30 29 30 22 26 28 29 28 21 30 28 7 8 7 9 10 10 12 9 9 12 9 11 12 14 15 12 8 9 14 18 20 20 20 20 23 26 20 21 19
26 24 30 26 31 29 28 23 24 27 22 22 20 29 17 8 9 8 9 8 9 8 7 7 9 6 8 9 10 15 16 11 11 11 15 19 19 18 17 20 23 27 25 23
29 22 19 27 28 30 27 28 18 22 21 25 23 25 11 7 7 4 4 4 8 5 7 5 7 3 5 7 8 11 17 16 11 11 11 13 14 15 16 20 19 18 20 31
30 28 20 27 30 32 30 24 21 21 25 22 22 24 12 8 9 11 8 4 5 3 5 4 4 1 4 6 7 11 12 11 16 9 11 10 12 14 13 15 16 14 20 24
30 29 23 30 35 33 32 32 29 25 28 27 26 16 16 17 11 9 7 5 3 2 3 3 1 3 4 4 6 9 13 14 14 16 13 13 14 14 14 12 14 15 16 18
27 19 25 34 33 34 35 35 32 29 27 23 25 10 20 17 11 6 4 6 6 4 2 1 2 5 5 2 5 7 12 15 17 19 18 17 15 15 16 18 18 17 18 19
28 28 26 34 37 38 38 34 36 32 32 34 28 9 18 14 11 8 9 7 6 6 4 3 5 5 6 4 5 6 11 13 18 19 21 20 21 21 20 20 19 19 19 19
34 35 36 32 30 32 34 36 35 34 35 32 26 27 17 13 11 18 16 8 8 7 6 4 6 6 7 6 7 7 9 12 15 19 19 18 17 17 16 15 15 16 17 18
39 43 38 32 27 25 36 35 34 36 36 39 25 21 19 25 16 13 9 19 13 10 9 6 7 7 9 8 8 9 9 10 13 16 18 18 18 18 16 16 17 17 18 18
48 46 37 35 31 27 31 38 38 33 30 38 36 26 27 26 22 18 13 13 16 14 11 10 8 7 8 9 8 9 9 9 9 13 14 15 16 17 18 18 19 20 21 21
51 51 44 43 39 38 38 42 40 33 33 35 31 19 33 28 18 20 12 17 14 16 12 12 11 10 8 10 10 9 8 8 8 9 10 12 12 13 14 15 17 18 18 18
55 54 49 54 48 52 40 35 33 31 29 33 21 20 26 20 22 22 20 23 22 17 15 13 13 12 9 10 11 10 8 6 7 10 9 10 10 9 10 10 11 11 10 10
66 62 58 59 55 49 46 35 35 30 26 30 32 29 33 27 26 21 15 28 23 23 17 16 15 16 14 12 13 13 10 7 7 7 6 8 8 8 8 8 8 7 7 6
70 68 64 51 60 45 46 36 28 29 37 34 33 26 31 30 28 16 20 23 21 24 14 19 18 17 17 15 15 15 13 8 8 8 7 6 6 5 4 4 3 2 4 5
77 73 69 65 55 56 53 49 36 37 21 22 25 29 29 27 20 26 20 24 23 22 17 18 21 19 20 20 19 18 17 13 13 10 9 8 6 5 3 3 3 2 3 5
79 78 70 65 58 53 53 51 35 26 23 30 36 33 36 24 22 27 24 26 30 28 23 20 23 23 19 19 22 21 18 21 19 17 14 12 12 10 9 9 8 7 7 7
80 80 74 65 65 52 53 48 42 39 33 32 31 33 38 33 38 31 31 23 20 26 25 23 21 23 21 18 18 21 26 23 22 20 18 18 17 15 15 14 14 13 12 12
79 72 71 70 66 66 57 43 42 44 33 30 31 26 34 33 32 31 33 31 26 25 17 19 25 19 19 21 18 18 23 24 24 22 20 21 21 21 20 20 21 19 16 16
75 70 73 68 57 49 43 47 46 37 36 40 30 28 22 30 35 31 30 32 30 27 30 23 22 21 19 21 22 21 19 21 22 22 21 21 22 23 23 24 24 22 22 19
76 66 65 67 61 55 52 42 38 36 30 36 31 35 30 25 33 31 31 33 33 33 27 31 32 37 29 23 18 23 23 21 22 22 22 22 24 25 25 26 27 25 26 23

GFSCGP_500_spd_006.txt.gz
Wind_Speed
32 35 23 21 22 23 26 29 30 25 21 29 26 27 24 20 15 13 13 17 22 23 21 19 24 26 28 30 31 23 24 26 20 21 20 19 22 23 18 21 23 14 7 13
32 22 21 28 29 29 33 35 34 27 24 31 31 28 24 22 15 10 9 13 18 20 19 17 22 24 27 27 29 21 21 23 19 18 20 21 20 26 24 21 30 23 19 21
29 18 24 26 27 32 33 34 30 30 28 30 34 32 24 24 19 13 12 13 16 20 18 16 20 22 25 25 26 18 19 21 17 16 21 19 18 19 20 22 28 29 24 24
32 27 27 28 29 32 32 27 31 32 31 29 34 32 25 23 19 21 15 14 16 19 16 13 17 19 22 23 23 15 16 19 17 14 12 20 27 22 24 25 30 27 26 23
23 26 30 32 28 30 29 30 34 33 32 31 33 34 28 21 22 23 14 11 18 18 13 10 15 16 19 20 20 14 12 15 16 17 24 19 16 18 12 18 19 22 22 21
24 29 35 35 33 32 32 34 35 35 33 32 30 28 27 23 21 15 10 14 17 16 9 9 12 13 16 16 17 12 9 12 13 13 17 18 20 22 20 18 15 18 19 24
20 18 28 35 35 33 35 34 34 34 30 29 21 26 28 21 14 9 7 10 16 11 6 7 10 10 12 12 13 12 11 8 11 10 13 15 18 19 16 15 18 13 14 19
23 21 19 24 29 31 32 33 33 32 29 28 26 27 28 16 12 12 14 11 12 9 5 6 9 6 9 9 10 10 7 9 7 10 11 14 14 14 18 21 20 18 17 19
25 23 19 23 24 27 31 34 29 31 29 30 29 24 18 7 12 13 10 11 11 6 5 5 7 4 6 7 9 6 11 6 7 8 8 11 12 13 17 17 15 19 19 22
29 27 22 24 27 30 33 30 32 32 30 26 24 21 9 12 10 14 16 12 8 6 5 4 5 1 4 6 8 7 6 8 5 7 9 10 11 11 13 15 16 21 21 20
32 31 26 30 33 32 35 37 33 32 30 25 23 15 6 14 17 16 16 11 9 5 4 4 3 0 2 4 6 7 7 7 6 7 10 10 10 11 9 12 15 16 15 12
35 34 36 30 33 36 37 37 32 32 29 27 26 10 9 6 14 19 3 7 8 4 2 3 1 2 1 3 5 5 7 8 10 8 11 12 13 13 13 11 12 14 15 15
38 40 37 35 39 38 39 37 36 32 33 29 25 14 9 10 14 16 14 9 5 6 2 2 3 4 1 3 6 5 4 8 12 14 16 15 14 16 18 15 14 14 18 17
43 43 42 39 29 30 33 34 33 33 35 30 22 14 9 14 15 16 15 11 9 7 4 4 4 5 4 5 7 8 4 6 10 14 15 15 16 17 15 15 17 17 16 18
48 44 41 38 33 32 31 31 30 31 30 34 19 20 15 17 22 20 15 16 13 9 8 5 5 6 6 7 8 8 7 6 7 10 12 12 12 14 14 15 15 17 19 19
50 46 45 43 39 37 37 37 34 35 32 31 23 23 15 15 22 20 15 19 16 12 11 9 8 7 9 8 10 9 7 7 8 7 9 11 11 14 15 15 16 17 18 18
53 51 48 47 42 41 43 42 37 36 36 29 29 20 21 22 26 25 23 17 16 20 18 16 12 11 10 11 11 11 8 6 8 9 9 10 11 13 17 17 17 18 19 19
54 53 51 51 47 49 41 31 31 31 31 31 25 24 24 28 30 28 22 19 19 25 19 17 17 13 11 12 12 12 9 8 7 9 10 12 12 12 15 17 16 16 15 15
59 55 55 55 52 47 43 41 35 30 25 32 23 21 24 26 26 22 19 16 16 25 23 19 19 18 14 13 15 14 11 10 9 9 10 10 11 12 13 15 14 13 12 11
66 60 58 58 55 50 44 44 37 34 31 28 27 26 26 28 31 15 24 18 22 27 27 22 20 18 17 15 16 17 13 11 11 11 11 10 10 11 11 10 10 11 10 8
71 69 65 61 58 51 49 48 37 35 28 19 26 25 30 34 17 20 29 21 24 31 29 24 23 20 21 21 19 19 17 13 13 13 13 12 10 9 8 8 7 6 5 5
72 72 71 67 60 54 53 51 45 35 24 16 23 28 30 33 26 28 27 29 29 34 26 28 25 27 22 21 19 20 20 21 19 17 14 13 11 8 7 6 6 6 5 5
77 74 73 70 57 54 54 55 43 34 33 29 29 27 27 27 31 29 25 30 27 23 22 23 25 28 24 22 19 22 25 25 21 19 19 17 15 14 13 12 12 11 10 9
77 76 76 74 69 62 61 58 47 45 22 32 30 31 23 30 29 28 23 30 25 20 20 26 29 26 25 24 21 20 23 27 25 23 23 22 21 19 18 18 17 16 16 16
76 74 77 77 73 65 63 62 52 46 38 28 24 27 27 29 30 31 30 36 33 31 22 22 23 24 24 28 25 23 21 22 24 26 26 25 24 23 22 21 22 22 21 21
74 75 76 75 70 68 68 65 58 45 40 44 37 27 25 25 23 31 29 31 28 36 35 30 27 24 27 25 26 26 26 23 22 23 24 25 25 24 23 23 24 25 25 25

GFSCGP_500_spd_009.txt.gz
Wind_Speed
31 33 23 21 23 22 23 24 25 25 29 31 31 29 22 26 21 22 23 21 19 18 20 23 24 21 23 28 31 27 23 26 22 19 17 18 18 22 20 19 18 14 12 10
28 22 17 23 25 25 26 27 29 31 36 33 32 29 27 26 24 19 21 24 23 21 21 23 23 20 21 26 28 22 20 23 17 17 20 18 24 19 25 26 25 20 14 11
24 17 22 23 23 25 24 26 30 33 35 34 33 30 32 25 22 19 21 23 23 21 22 23 20 17 19 24 26 18 17 20 16 13 17 20 24 26 26 25 24 18 18 16
26 23 22 25 27 23 27 26 32 34 35 33 30 33 29 25 23 24 25 26 20 18 20 20 17 15 17 21 23 15 14 18 17 9 9 14 11 21 21 21 22 19 18 18
17 20 24 30 25 27 28 29 32 34 34 32 29 33 27 24 23 22 24 20 17 17 21 17 14 13 14 18 19 13 11 14 10 13 14 14 14 16 13 22 18 16 19 18
22 24 29 30 31 34 34 32 31 34 35 33 27 30 25 24 21 18 16 14 15 14 16 13 13 10 12 14 15 14 6 10 9 8 13 11 15 15 14 18 11 22 14 17
22 22 25 29 34 34 34 32 33 36 35 29 26 27 22 19 18 18 13 14 15 15 12 11 12 9 10 12 12 14 8 5 7 7 9 11 15 13 16 14 19 17 18 20
28 26 21 24 27 29 31 32 34 33 32 28 27 26 20 17 14 18 14 15 18 14 11 10 10 7 9 11 10 11 6 6 4 5 6 9 12 15 16 15 19 16 22 23
28 28 23 26 24 27 26 29 28 30 32 30 26 22 17 13 13 15 12 9 14 12 9 9 8 5 7 9 9 9 7 5 1 3 4 7 8 14 12 11 19 22 25 23
31 32 25 26 28 30 27 27 28 30 32 30 24 19 10 11 12 13 11 13 14 12 8 7 6 4 5 8 8 9 6 5 1 3 3 5 5 9 12 17 15 20 18 17
35 34 29 31 34 28 29 27 30 30 31 29 23 16 8 6 11 16 15 16 15 13 7 6 3 2 4 6 7 8 8 7 2 2 5 6 7 8 12 13 15 13 13 17
36 35 34 30 31 31 32 28 32 31 31 26 25 13 10 10 10 12 13 12 14 9 7 5 2 2 2 4 6 7 9 8 4 4 6 6 6 8 11 8 11 9 10 13
40 42 39 38 39 38 34 32 31 32 32 29 21 9 12 10 12 13 11 8 11 7 5 5 3 2 2 3 4 6 8 9 10 10 5 8 9 10 11 11 12 15 18 19
41 43 45 41 33 33 34 31 31 29 29 26 17 12 11 14 15 16 13 11 10 8 7 5 5 5 1 1 3 4 6 8 8 10 11 11 13 13 13 14 14 16 17 19
47 46 46 42 41 36 34 32 32 29 25 23 14 13 10 16 19 17 15 15 12 10 10 7 6 7 6 3 2 3 5 7 7 7 9 10 10 10 13 14 15 15 18 19
49 48 48 46 42 37 35 35 36 28 28 26 23 20 16 20 18 17 16 15 17 14 13 11 10 9 10 8 6 5 6 6 7 7 7 8 9 11 13 14 14 15 17 18
52 51 50 48 45 40 44 38 34 26 30 29 28 16 20 21 21 17 17 16 16 16 17 14 12 11 11 10 9 8 6 6 5 6 7 8 8 10 13 15 17 17 16 16
54 52 52 52 50 48 40 36 33 31 29 28 25 24 24 19 22 21 19 20 18 18 21 19 15 13 12 12 12 13 9 7 7 6 6 7 8 9 11 14 16 17 17 17
56 55 56 56 55 49 42 38 33 30 25 23 20 21 24 24 28 21 16 19 22 20 20 23 18 18 14 13 15 16 12 11 11 10 9 9 8 9 9 11 13 14 12 11
60 58 58 59 58 51 46 42 34 33 35 25 18 20 27 28 30 14 15 21 22 22 20 23 21 16 17 14 16 18 15 14 13 13 12 11 10 10 9 8 9 9 8 7
67 63 61 61 60 52 51 45 41 38 31 22 25 21 24 26 18 19 26 24 24 18 23 25 23 19 16 18 17 21 19 16 16 14 14 13 13 12 10 9 9 8 7 6
69 67 66 64 62 52 50 48 43 35 29 23 24 29 28 24 19 28 29 31 27 22 21 26 26 25 20 17 18 20 23 21 17 16 15 14 13 13 11 9 9 8 7 7
74 73 70 68 56 53 51 53 45 37 30 25 24 23 22 23 22 27 23 29 28 22 22 27 29 27 22 22 20 21 25 25 22 18 17 16 14 13 11 10 10 9 9 8
77 72 72 68 61 57 60 54 46 42 39 23 29 31 24 24 18 18 29 28 31 28 24 28 31 23 21 21 23 22 24 26 24 25 23 21 19 17 16 15 15 15 14 14
76 74 71 69 64 64 62 61 57 53 45 24 30 23 20 24 18 18 26 30 29 27 26 28 30 27 25 23 26 27 24 23 24 26 27 26 25 23 21 20 20 20 19 19
77 71 74 69 66 65 64 62 60 57 52 42 36 36 31 19 18 19 25 26 26 30 32 30 29 26 28 25 26 28 30 28 25 25 28 28 28 26 24 23 23 23 23 24

GFSCGP_500_spd_015.txt.gz
Wind_Speed
29 35 36 23 25 19 21 22 23 22 20 24 30 27 26 30 32 28 25 26 25 29 29 32 36 30 28 27 26 28 26 24 23 13 19 23 24 28 19 20 16 13 9 3
38 39 28 27 27 27 27 26 26 22 22 33 32 30 29 33 28 23 24 24 26 26 29 32 29 26 26 24 24 25 22 20 18 16 21 21 19 22 24 18 17 13 13 2
38 29 27 29 26 29 28 25 22 21 23 31 30 26 20 20 25 23 24 23 25 26 26 29 25 25 22 23 22 23 20 19 16 17 21 19 19 19 20 14 14 14 12 5
34 32 29 30 32 27 30 22 23 26 26 26 20 24 20 18 23 20 21 25 21 22 25 22 22 22 20 21 21 21 19 17 15 15 19 19 22 19 16 15 15 13 14 9
28 32 30 33 28 27 26 23 24 28 30 27 22 23 13 17 18 12 13 16 20 23 19 19 20 19 19 20 20 19 17 16 14 14 18 18 18 18 15 12 13 14 16 9
31 28 29 29 24 29 29 29 27 26 23 26 19 20 13 11 17 16 17 22 22 21 18 19 18 17 19 18 19 17 15 15 13 12 15 18 19 19 15 14 10 10 11 9
35 33 30 31 35 36 34 30 27 24 20 20 13 16 17 16 20 20 20 21 21 20 17 15 14 16 19 15 17 16 13 14 12 11 13 15 22 14 18 13 15 13 13 8
35 38 37 33 35 32 33 31 28 19 13 13 21 25 10 14 23 19 17 19 20 15 12 13 12 15 16 14 15 14 13 12 11 9 11 14 20 14 19 15 14 14 16 13
37 33 29 38 31 34 33 32 22 23 25 17 13 14 28 24 22 16 14 16 16 12 11 11 11 14 12 12 13 13 13 13 10 7 9 12 14 13 13 18 19 9 11 12
39 34 33 32 33 33 36 26 24 24 24 21 17 15 14 25 7 18 15 15 13 13 12 11 10 13 9 11 12 13 13 12 8 6 7 9 12 12 12 16 20 15 7 11
43 38 34 34 42 33 35 34 29 23 22 15 13 13 21 22 22 15 16 13 12 12 14 10 8 11 7 9 11 12 12 10 9 7 4 8 7 10 12 12 13 15 14 10
38 49 40 41 37 34 35 34 30 28 23 21 18 12 28 28 26 16 11 15 13 13 16 9 6 8 6 8 11 12 10 10 11 6 4 7 7 9 12 12 11 12 13 11
41 51 45 37 42 44 42 36 33 34 27 23 19 13 21 25 19 14 14 15 12 8 11 5 5 6 5 6 9 11 10 11 10 8 10 9 8 8 9 12 12 12 16 13
45 44 45 48 42 41 44 40 38 33 33 28 25 18 24 27 21 14 15 14 12 9 9 5 4 4 5 6 7 9 8 9 11 10 12 11 10 10 11 13 14 13 16 16
52 52 49 42 34 38 40 39 38 38 30 30 20 19 20 22 23 18 18 12 12 10 11 7 4 4 4 5 6 7 6 6 8 9 10 10 10 10 11 11 16 19 17 18
56 52 50 47 44 36 45 45 42 39 34 34 28 23 17 22 23 18 17 16 12 12 12 10 6 3 4 4 5 5 4 4 5 6 7 8 8 10 10 11 11 12 14 15
59 54 53 53 49 47 42 48 46 42 38 34 32 19 21 24 21 20 20 18 13 14 14 13 9 4 3 4 4 4 2 2 4 5 5 8 9 9 10 12 12 13 19 19
62 57 55 54 50 45 54 46 44 45 42 36 35 24 18 20 24 24 23 21 15 14 15 15 10 7 6 4 4 5 3 0 2 5 5 7 9 10 10 12 14 15 15 18
69 61 59 58 46 44 52 52 48 46 43 41 35 24 20 22 24 24 23 24 17 15 17 14 13 10 6 5 6 5 6 3 2 1 3 6 10 12 12 13 15 16 15 14
66 66 59 57 45 47 53 51 51 45 45 39 34 30 23 25 19 19 20 20 21 17 19 15 14 13 12 9 7 8 9 6 4 4 4 5 8 11 13 13 12 11 10 10
70 69 66 59 48 46 41 33 54 50 42 37 36 27 25 27 14 19 22 24 25 20 21 20 15 14 16 13 12 9 11 10 6 5 7 6 6 8 11 12 10 7 5 3
71 70 67 53 40 48 45 40 50 41 45 41 36 27 30 25 23 23 24 21 21 18 19 15 14 15 17 15 15 12 12 13 10 7 6 7 7 9 9 8 8 7 5 3
57 68 63 49 45 41 49 42 47 54 40 41 32 30 32 26 24 22 17 19 18 19 20 18 14 12 19 20 17 17 15 13 14 13 10 9 9 9 8 7 6 6 5 5
43 46 56 51 52 50 53 59 53 53 48 34 33 34 32 26 27 25 22 19 19 20 20 22 20 16 17 23 22 22 17 16 17 18 16 14 12 12 12 11 10 9 8 8
49 51 53 54 46 45 45 60 56 45 50 50 40 34 32 30 27 23 23 21 21 21 24 26 23 20 20 22 29 27 20 18 18 20 22 19 18 16 16 15 15 14 13 13
54 58 59 58 54 64 54 63 56 56 55 51 41 37 37 33 29 27 26 24 23 20 22 26 23 25 21 19 30 28 23 20 23 23 22 24 25 23 22 21 21 21 21 20

GFSCGP_500_spd_021.txt.gz
Wind_Speed
35 39 30 21 21 21 23 21 16 16 4 18 25 23 19 25 25 26 26 21 22 31 33 23 23 23 24 25 26 24 24 25 25 25 23 25 22 24 26 23 22 22 22 20
37 34 23 20 25 22 23 23 19 14 12 26 16 20 20 32 26 24 24 24 27 26 25 18 20 22 21 24 24 24 22 23 23 23 21 22 21 22 23 22 20 22 23 16
40 30 24 28 28 28 25 24 15 20 20 24 20 25 28 32 25 22 21 24 30 31 19 19 21 20 22 24 21 21 20 21 21 21 18 20 22 22 20 20 20 21 19 15
43 38 34 35 33 29 29 20 20 23 23 31 29 35 32 24 18 17 20 24 32 37 27 23 21 19 23 21 20 18 19 19 20 18 16 18 20 24 19 20 21 21 18 14
32 31 38 36 29 27 21 23 22 18 15 18 25 29 16 21 21 18 29 22 32 38 35 24 21 18 21 18 18 17 18 17 18 16 14 16 16 21 15 21 23 21 17 13
30 27 37 35 30 28 22 24 21 15 19 28 23 22 3 8 14 19 25 30 34 39 32 22 17 17 18 18 15 16 16 16 16 14 12 13 14 17 20 20 19 22 12 15
30 29 32 30 34 32 31 24 26 26 31 34 23 23 3 8 12 18 24 27 29 25 13 16 12 16 14 15 13 15 15 15 15 12 11 13 13 14 20 19 17 17 10 13
34 34 32 32 34 33 32 26 33 31 32 25 12 22 9 17 15 16 24 24 25 25 16 13 11 16 15 11 12 15 15 14 12 8 9 12 10 12 17 20 18 18 12 7
36 32 27 30 29 29 30 33 24 29 27 21 11 15 4 15 14 20 25 25 26 20 15 13 13 15 14 9 12 14 13 12 12 6 7 9 12 10 13 19 17 16 15 8
40 36 27 28 27 29 34 27 29 34 33 32 24 22 13 19 24 25 29 27 28 21 16 13 11 12 10 7 12 14 13 14 11 3 7 9 11 11 13 19 14 17 18 12
43 41 32 29 36 35 35 37 38 33 31 27 22 23 17 21 22 25 23 28 28 16 15 12 12 9 5 7 12 14 15 14 9 5 7 9 10 11 13 17 14 10 15 15
47 46 43 38 29 28 34 37 39 41 36 25 21 15 17 20 23 26 22 26 27 12 12 10 3 7 2 7 12 14 15 14 10 9 7 8 11 11 14 16 14 13 9 9
47 50 47 39 38 37 32 33 38 43 34 27 22 17 26 23 26 25 21 21 17 10 8 1 4 7 2 5 10 11 13 14 12 13 11 10 14 14 16 20 16 19 15 16
40 46 54 50 45 40 37 38 39 43 41 30 25 17 23 27 28 23 24 22 9 7 5 1 3 6 2 4 9 10 11 11 11 11 12 12 14 15 17 21 13 16 19 16
45 48 52 51 44 41 39 38 36 33 32 34 23 24 29 25 23 20 27 17 5 7 3 2 1 4 4 3 8 9 11 10 8 9 10 11 12 12 15 18 20 17 15 15
49 52 49 53 51 48 45 41 39 31 31 38 29 25 28 24 23 23 28 17 6 6 5 1 3 2 4 3 6 8 9 11 9 8 10 12 13 12 9 14 17 20 22 18
56 58 41 55 55 50 49 48 43 32 32 31 33 26 32 33 32 29 30 19 11 6 6 3 3 3 3 2 5 8 8 10 10 9 8 10 12 13 12 12 18 19 23 24
62 63 56 50 55 63 55 47 40 42 37 25 30 29 26 30 28 27 27 22 16 8 6 3 6 6 3 2 3 5 8 8 10 9 8 9 12 13 15 15 17 19 21 20
63 63 61 59 57 61 55 55 43 36 40 28 27 31 26 24 29 31 25 21 20 14 10 8 8 8 6 5 2 4 6 7 7 8 7 8 11 13 15 16 15 16 18 20
60 62 64 66 59 64 53 54 40 31 33 32 29 29 28 28 30 25 22 22 18 21 12 11 10 9 10 9 5 4 5 8 8 8 8 7 9 12 14 16 16 16 17 17
59 62 63 62 62 61 55 49 41 45 44 35 36 31 26 30 27 24 22 23 22 19 14 14 11 11 12 10 9 6 5 7 9 9 9 8 8 10 10 10 11 12 11 10
66 61 61 59 57 61 58 53 54 48 42 39 41 39 30 24 21 25 25 27 25 18 14 15 14 14 16 13 13 11 9 8 9 10 10 9 8 8 9 7 5 5 6 9
63 62 61 61 56 56 50 51 49 46 50 48 46 42 38 29 28 24 27 29 27 19 15 15 17 18 20 14 15 15 10 10 11 11 9 10 9 8 8 8 6 5 7 9
60 63 69 64 60 52 47 50 45 43 42 46 44 40 37 31 33 28 30 30 27 22 18 15 18 18 14 13 13 17 13 12 12 13 11 10 10 10 9 8 7 7 8 9
61 51 59 52 54 51 51 47 43 45 44 46 44 40 39 35 34 33 31 30 29 24 20 18 20 18 19 16 14 15 16 14 14 14 15 14 11 10 10 9 9 7 6 6
44 74 70 54 55 60 56 52 54 41 45 44 41 32 31 33 31 34 35 33 31 26 22 22 19 25 24 21 19 18 18 19 17 16 15 16 16 14 12 11 10 11 10 8

GFSCGP_500_spd_024.txt.gz
Wind_Speed
40 48 26 15 21 26 20 22 21 16 22 24 20 14 18 16 12 15 22 23 21 20 17 20 23 19 24 25 27 31 28 25 25 23 25 23 24 27 26 24 24 21 20 18
44 33 28 25 31 28 25 26 19 25 26 24 20 14 12 12 21 18 26 21 21 30 25 21 23 24 23 24 27 28 27 24 23 22 23 21 22 24 22 19 20 17 15 16
43 35 31 33 33 34 29 28 17 21 25 27 22 20 18 14 18 20 25 24 22 27 27 27 27 24 25 24 26 24 24 23 21 21 19 18 21 21 18 22 19 15 15 11
48 45 40 38 38 34 36 19 20 21 26 23 24 25 20 20 22 27 29 28 24 23 28 28 27 25 25 24 22 25 21 20 19 19 16 16 19 19 19 20 18 16 15 8
49 44 42 38 36 32 25 26 24 22 23 26 30 31 22 23 20 25 25 14 14 21 24 25 21 22 21 21 21 21 20 17 17 18 14 14 18 19 21 20 15 13 13 9
51 48 43 40 40 38 24 32 28 27 29 37 25 34 10 16 19 15 6 9 12 19 28 20 19 17 18 17 21 18 18 16 16 16 13 14 18 15 20 21 12 9 11 8
46 44 42 41 42 44 38 36 36 36 40 32 23 22 8 9 13 12 12 13 14 18 30 19 17 14 16 18 17 17 16 14 14 12 10 12 17 15 18 16 12 9 5 8
34 36 35 32 38 43 43 41 40 39 34 26 23 20 9 7 14 17 15 16 18 22 28 16 15 14 16 17 14 15 13 11 13 10 9 11 15 16 16 15 11 11 3 8
36 37 30 29 30 38 41 39 33 33 26 29 18 18 18 11 11 9 13 15 17 20 23 15 13 13 12 13 11 13 12 12 12 9 7 11 13 15 13 16 8 17 9 4
39 36 29 24 30 34 33 33 35 38 34 29 24 22 19 14 14 11 10 15 16 21 20 16 15 14 11 9 9 10 10 10 10 4 7 10 10 13 13 13 10 16 15 12
46 44 35 34 32 32 36 38 41 31 26 27 21 20 12 16 16 14 12 16 20 22 16 15 14 10 9 6 7 8 10 9 9 5 7 9 11 9 11 12 6 11 14 14
46 48 40 31 32 27 29 31 33 33 31 29 23 17 15 23 19 15 13 14 16 22 13 12 6 6 5 3 5 8 11 8 10 8 8 10 11 12 11 13 11 12 12 14
49 50 47 41 41 38 38 36 34 33 33 30 24 15 19 18 19 15 15 10 15 22 11 9 6 6 4 2 3 7 9 10 13 10 10 12 13 15 10 12 13 14 14 17
62 58 55 50 43 39 40 39 37 38 38 30 22 20 22 19 19 19 12 11 13 19 7 9 7 5 3 2 2 4 6 7 10 11 8 10 13 17 16 10 14 11 12 15
67 62 57 50 45 42 38 36 38 39 34 32 22 21 22 20 17 13 13 12 10 14 5 7 7 3 3 2 1 2 4 6 8 8 9 7 9 13 15 15 10 10 13 12
67 64 58 54 49 45 44 42 38 35 34 29 25 25 20 23 20 20 17 14 4 9 8 6 7 4 2 3 2 1 4 5 7 8 10 9 9 12 13 16 14 14 12 16
67 67 62 58 55 49 55 49 44 36 32 29 29 23 25 27 22 20 20 8 1 4 10 9 8 7 2 2 2 2 2 5 7 8 8 9 9 12 14 17 22 22 22 21
67 67 63 61 56 63 57 49 44 40 35 30 25 20 29 28 23 23 18 11 1 1 7 9 9 8 5 1 2 2 4 4 6 8 9 12 11 13 16 16 18 19 20 20
67 68 63 63 62 62 59 52 51 45 41 33 29 27 30 33 31 29 21 11 3 3 6 12 9 11 8 6 3 3 3 4 4 7 10 12 11 12 14 16 16 17 19 19
63 64 61 64 58 65 60 52 49 43 40 38 37 31 34 35 32 26 18 13 6 6 4 13 12 12 12 8 5 4 4 5 5 6 8 11 13 12 14 15 15 16 18 18
68 62 61 60 54 60 58 53 49 53 47 37 34 32 33 32 24 22 23 18 12 7 8 7 13 14 15 11 7 6 6 6 7 6 7 9 11 11 11 12 11 10 10 11
70 62 62 59 52 55 61 57 49 44 41 40 33 35 27 25 21 25 24 21 18 10 8 4 14 15 16 15 11 8 9 7 9 9 7 8 9 8 8 9 9 10 11 11
72 66 65 63 53 54 55 68 58 53 49 43 37 37 27 21 22 19 20 22 22 16 10 9 15 19 17 16 14 12 11 10 10 11 10 9 9 9 8 7 7 9 12 14
46 68 67 65 59 45 56 56 67 60 53 48 41 35 32 30 28 24 24 23 22 18 12 12 13 22 20 15 14 14 14 14 11 13 12 11 11 11 12 10 9 8 10 11
40 67 65 69 66 58 51 58 59 54 56 50 45 42 39 38 31 28 27 27 26 20 17 16 13 22 24 20 15 12 18 17 15 14 14 14 12 11 11 10 9 10 11 8
43 56 67 72 69 64 59 55 61 58 59 55 50 46 47 42 33 29 28 28 29 25 19 18 19 18 24 25 21 15 16 18 17 16 15 16 16 15 13 11 11 11 11 11

GFSCGP_500_spd_027.txt.gz
Wind_Speed
69 68 62 47 33 26 29 24 14 5 16 28 31 30 20 18 23 16 14 10 14 14 18 20 23 30 25 29 27 28 30 29 32 30 30 30 29 27 27 25 26 24 25 20
62 55 46 42 39 33 28 24 15 12 19 33 28 27 22 21 21 18 17 9 11 15 21 22 25 33 27 27 26 27 28 29 30 29 27 29 26 26 25 25 27 26 23 20
44 32 43 41 38 36 27 26 15 13 24 34 31 25 24 19 20 18 13 14 13 18 18 23 23 28 26 23 24 26 26 29 28 27 27 26 24 25 24 26 27 22 19 16
42 38 43 43 41 36 33 27 23 20 30 33 34 31 27 25 24 17 12 15 11 10 10 20 19 19 22 20 21 23 26 26 28 25 26 26 23 26 22 25 26 21 14 10
45 46 48 46 40 36 33 28 27 26 31 39 38 37 20 27 21 15 13 8 6 8 16 22 20 19 19 16 20 22 23 25 27 25 26 23 21 24 20 24 24 18 14 10
50 48 45 40 40 40 32 33 34 34 36 47 33 33 15 19 10 20 7 6 5 14 17 21 21 17 16 15 19 20 22 24 23 22 24 17 18 21 21 25 20 19 12 9
58 58 53 47 46 46 43 42 42 44 46 48 27 38 7 16 16 15 13 7 7 13 16 22 17 17 16 17 18 19 22 23 21 22 19 16 17 20 19 18 17 18 8 6
49 55 54 51 52 49 45 45 49 52 47 42 29 30 12 13 20 17 9 1 5 14 19 22 17 16 14 13 15 17 21 20 21 20 14 14 16 17 16 19 13 14 4 7
52 50 45 44 47 48 48 50 50 45 41 35 33 24 23 25 21 10 5 1 7 15 17 22 15 15 13 12 12 17 18 17 18 16 10 14 15 14 14 15 12 14 7 3
52 46 41 39 41 41 43 44 48 47 43 40 31 26 26 27 23 10 4 2 7 16 17 21 13 15 11 9 11 16 14 16 15 11 11 13 14 12 15 11 10 15 8 6
56 50 37 40 43 42 44 48 48 43 40 38 29 26 23 28 19 11 5 2 9 15 20 13 14 10 9 6 10 12 13 12 12 10 9 12 12 13 13 12 11 11 11 11
62 57 43 39 40 37 40 43 44 40 39 33 29 24 23 22 21 10 6 4 8 14 18 12 11 10 11 5 9 8 10 10 12 9 9 11 12 7 15 13 15 9 11 10
68 62 52 45 43 41 43 40 35 37 36 32 30 23 30 25 14 12 9 6 7 14 17 9 7 8 10 5 7 8 7 10 10 8 10 11 13 10 11 12 14 11 14 14
70 66 59 52 46 42 37 41 42 41 37 30 25 25 29 21 13 12 10 7 7 11 13 8 6 8 9 4 6 8 6 7 9 9 7 8 12 13 12 10 12 11 8 11
71 67 62 56 50 42 43 40 40 39 30 32 22 28 27 20 17 13 12 7 3 11 8 8 5 6 7 4 5 7 6 6 7 9 7 8 9 11 12 8 9 12 13 12
68 67 67 61 52 47 46 44 40 35 36 32 28 30 26 20 18 16 11 7 2 13 5 8 6 6 5 5 5 6 7 5 5 6 8 9 8 10 13 15 12 11 13 15
70 68 67 64 55 51 56 50 44 36 32 32 31 30 28 24 21 15 12 8 4 11 6 6 7 6 6 4 5 6 6 6 5 5 6 10 11 12 18 18 17 16 18 19
75 72 69 64 60 64 52 50 46 38 33 31 32 29 29 25 19 17 14 10 7 11 6 3 5 6 7 5 3 4 4 5 5 5 5 9 13 13 15 17 17 17 18 20
71 75 72 68 61 59 56 52 49 44 40 36 33 26 31 29 26 22 17 11 11 11 8 6 6 6 7 6 5 4 4 4 3 5 6 6 10 13 13 16 17 17 17 19
66 73 73 71 63 62 65 54 50 44 45 38 35 34 28 29 33 25 18 13 12 10 9 8 8 8 9 9 5 5 4 4 3 3 6 6 7 11 13 16 17 17 17 18
60 67 65 65 65 61 66 59 53 55 48 44 36 36 35 33 31 25 24 16 15 11 10 6 8 10 7 10 9 6 4 4 4 3 6 7 8 8 8 9 11 13 12 13
59 60 60 56 57 61 56 51 55 54 49 46 38 32 35 35 31 30 28 20 17 14 11 7 7 9 10 9 12 9 7 5 5 6 5 7 8 7 6 7 7 9 12 14
52 62 57 59 57 61 57 46 61 56 53 46 43 38 35 31 32 29 28 23 18 18 14 11 10 10 12 8 13 13 8 8 7 8 7 6 7 8 8 7 8 9 11 13
41 60 59 55 51 56 56 52 61 62 54 49 45 39 33 36 31 29 25 20 17 18 18 14 14 13 11 11 10 11 10 13 10 8 10 9 7 8 9 9 8 9 11 10
40 55 62 60 54 52 54 57 63 55 56 52 49 42 40 38 35 29 25 22 18 16 16 17 16 16 14 10 10 8 12 15 14 11 11 11 9 8 9 8 8 10 12 10
41 45 61 60 60 54 60 55 62 59 63 52 52 48 45 45 41 33 28 27 23 19 18 18 21 21 17 12 12 12 11 17 17 14 12 13 12 11 10 10 9 9 11 11

GFSCGP_500_spd_030.txt.gz
Wind_Speed
58 65 63 59 63 67 63 56 50 36 30 31 29 34 22 29 33 21 22 22 20 20 9 7 12 14 22 25 32 35 30 27 28 31 30 31 34 34 31 29 30 34 36 32
51 54 51 65 67 64 60 57 45 22 21 30 29 35 21 26 23 25 24 22 17 11 7 9 13 18 23 27 31 31 26 26 28 29 30 32 32 34 31 29 29 31 33 27
49 41 42 54 62 62 50 43 29 21 31 31 35 32 21 25 27 22 19 20 12 12 7 8 14 20 24 26 27 23 23 25 27 28 30 32 32 31 29 29 27 31 29 20
47 44 38 40 50 54 48 32 33 30 34 30 34 31 23 26 28 23 20 14 14 10 6 10 15 20 16 15 18 19 21 24 27 28 30 30 31 26 24 26 26 29 23 20
46 43 40 36 39 39 36 33 34 31 36 37 36 40 16 28 29 23 16 12 11 4 7 13 20 20 12 16 16 18 23 24 27 29 28 28 27 22 22 25 23 25 21 16
50 43 42 31 28 32 38 35 35 33 39 48 32 38 15 28 21 21 24 14 11 5 8 11 20 15 12 15 17 19 22 23 27 28 27 26 23 21 22 21 24 21 19 11
54 52 46 41 37 38 41 39 39 44 47 46 28 36 4 9 25 21 18 15 11 8 12 15 22 14 13 16 15 18 20 23 26 25 25 23 18 21 21 19 19 18 13 7
57 54 53 49 43 42 41 42 43 43 41 40 27 37 10 18 20 23 18 15 14 11 7 14 17 13 16 17 15 17 19 23 23 22 21 16 19 19 19 19 13 17 10 6
59 55 51 51 47 43 42 45 41 42 43 46 33 35 23 16 29 17 13 15 14 5 7 13 13 12 17 13 13 15 18 19 20 20 17 18 18 19 18 13 12 13 8 4
61 59 53 52 48 49 48 44 44 46 46 47 39 33 20 24 28 17 13 17 10 9 6 11 10 12 9 10 10 13 17 18 18 17 15 15 16 15 14 11 12 13 8 4
61 63 56 50 54 50 52 53 53 49 49 49 46 32 20 31 29 19 18 16 11 6 8 11 7 7 11 9 8 13 14 14 17 15 13 13 15 11 16 16 15 13 10 6
66 63 59 51 43 45 46 46 45 48 47 46 42 28 23 28 29 23 21 16 7 4 7 8 5 5 11 10 8 12 12 14 15 13 12 14 18 11 13 15 14 16 10 8
70 65 58 55 49 46 46 45 46 45 47 45 36 23 26 28 26 26 23 13 5 5 7 6 6 4 9 11 8 11 11 12 13 12 10 13 15 12 13 15 13 11 13 9
71 69 62 57 52 42 46 44 44 43 44 38 32 18 27 28 26 25 23 12 9 2 5 5 6 3 7 10 8 9 11 11 11 12 10 11 13 13 11 12 14 9 11 8
70 68 63 58 55 49 47 40 42 43 41 35 23 22 29 31 28 23 16 11 9 2 3 4 4 3 4 8 8 8 9 9 8 10 11 10 12 13 10 11 15 15 9 8
73 69 67 61 56 53 50 50 47 42 37 30 28 31 26 29 27 22 19 14 11 4 2 4 2 3 2 6 8 7 8 9 7 8 10 9 11 14 13 12 13 14 14 11
72 72 70 67 60 55 54 49 45 43 40 31 30 31 30 28 28 23 20 18 10 4 2 2 1 2 1 3 7 8 6 9 9 8 10 11 14 12 14 16 16 18 18 15
67 75 72 71 65 60 49 48 44 42 35 34 35 35 33 28 26 23 19 14 12 8 4 2 3 0 2 1 5 8 6 7 8 7 9 10 12 13 12 14 15 19 18 16
59 70 74 72 68 60 55 46 50 48 36 34 36 37 36 31 26 25 19 18 13 11 10 5 3 2 3 1 3 7 7 5 6 5 7 8 10 12 12 14 15 16 18 18
52 63 70 70 67 65 64 55 51 47 40 39 39 37 41 39 36 28 21 20 16 15 12 7 3 5 3 5 2 4 6 4 5 3 5 6 10 12 13 14 15 16 17 17
46 55 58 64 63 66 68 60 50 50 45 42 39 38 45 45 37 26 23 22 17 16 16 12 7 5 5 6 6 3 5 4 3 3 3 5 5 8 9 10 11 11 12 15
43 51 53 55 59 63 62 58 58 54 49 45 41 40 41 43 36 30 21 24 21 20 16 11 8 6 8 6 8 6 4 3 2 3 3 5 5 3 4 7 9 12 13 15
34 42 46 52 57 61 60 65 63 56 51 49 44 41 39 36 34 33 27 26 24 22 17 14 13 9 6 8 8 9 6 5 2 2 3 5 6 5 5 5 6 10 14 15
35 43 43 48 53 60 56 60 58 57 54 50 48 43 39 35 33 33 30 27 25 24 22 19 17 12 7 8 9 7 8 8 6 3 4 5 5 6 7 8 5 7 9 11
43 37 39 45 49 53 59 57 57 57 54 52 50 45 42 38 36 34 32 28 27 26 26 23 19 17 13 8 11 9 9 10 10 6 4 4 6 6 7 9 8 8 7 6
36 40 38 43 45 52 54 53 55 55 55 52 51 48 46 39 41 35 35 30 28 27 26 25 23 21 18 12 12 14 11 9 11 10 8 6 6 7 9 10 8 8 10 7

GFSCGP_500_spd_033.txt.gz
Wind_Speed
63 63 62 57 55 61 63 65 59 56 53 56 46 47 45 38 40 39 29 18 20 20 19 17 18 20 22 22 25 24 31 33 31 31 30 30 31 30 31 33 32 30 29 31
60 61 50 51 58 59 61 62 61 60 58 56 49 50 36 35 31 30 21 20 21 17 15 20 20 17 18 23 26 26 27 26 29 28 28 30 30 29 32 30 26 28 28 33
62 42 47 49 49 52 52 56 55 56 59 50 47 44 40 31 28 25 20 18 20 18 20 20 16 15 19 24 22 20 21 22 25 26 27 29 29 29 31 23 25 26 27 29
60 51 51 50 50 47 47 44 44 48 55 44 38 49 35 26 26 25 20 13 15 18 23 15 14 15 22 24 17 18 19 22 26 26 29 28 28 29 25 23 25 21 25 27
59 59 57 50 45 39 37 38 38 44 45 43 42 50 14 22 24 23 24 16 16 17 15 11 13 13 21 16 16 17 20 23 24 27 29 28 28 25 22 24 22 23 22 23
61 59 53 50 43 39 34 34 35 42 44 50 45 39 19 14 17 24 24 19 19 19 16 12 14 17 19 14 16 17 19 20 23 28 26 27 24 19 22 22 20 18 20 15
64 63 57 55 47 45 42 36 37 36 41 49 36 34 10 4 18 23 21 23 17 22 18 12 14 16 13 14 17 17 18 19 24 24 24 22 20 22 21 19 18 17 16 8
66 64 59 54 49 41 37 36 42 41 47 46 27 35 16 14 13 13 25 24 20 20 16 12 14 13 12 15 16 14 16 20 21 22 21 17 20 19 19 17 13 17 10 3
64 63 57 53 46 41 36 43 36 37 39 33 31 25 17 16 13 24 15 18 22 18 15 14 11 8 12 13 11 10 13 17 18 20 16 16 16 15 19 13 11 12 7 3
64 65 60 54 49 48 44 31 36 41 44 39 29 27 18 14 18 24 12 20 22 16 15 12 7 6 8 11 8 8 13 13 17 18 14 16 16 12 15 12 12 10 7 8
63 65 62 61 55 52 50 48 49 44 41 38 32 28 15 15 21 20 16 19 19 15 15 8 6 4 7 10 5 8 11 12 16 16 13 16 15 13 13 13 17 11 9 9
65 65 62 58 56 49 49 45 39 39 38 36 35 26 17 18 23 24 19 21 17 18 11 5 4 4 6 8 5 8 10 12 15 15 11 14 15 12 13 12 14 12 9 9
68 67 62 60 58 55 52 47 49 49 46 43 40 34 22 16 21 26 23 23 19 17 6 4 2 2 5 7 6 7 10 12 12 12 10 11 14 11 11 14 12 13 10 7
67 68 64 60 55 53 53 54 50 49 47 45 42 32 21 24 23 23 26 26 21 13 5 4 1 1 3 6 7 6 9 11 9 11 10 10 13 12 10 13 13 11 11 8
61 67 65 60 58 55 52 49 51 48 43 44 35 27 24 23 25 26 26 26 19 13 6 5 3 2 1 5 7 6 8 8 7 10 8 9 14 13 13 14 17 11 9 7
60 63 66 60 55 57 54 48 47 46 43 38 28 25 31 33 32 28 28 24 20 12 7 5 5 3 2 3 7 6 7 8 7 9 9 10 15 15 15 15 16 13 15 14
59 62 66 59 58 54 56 47 44 43 43 33 28 31 36 34 34 30 26 27 19 14 9 5 6 4 4 2 6 8 6 8 6 9 10 12 15 14 14 15 15 16 17 15
50 63 63 59 58 57 51 51 44 43 36 27 37 41 37 32 32 31 30 28 18 14 10 7 6 5 7 4 4 7 5 6 6 8 10 10 11 12 12 14 15 17 20 20
42 54 63 56 60 54 50 51 50 48 41 33 42 45 43 41 40 34 32 30 22 15 13 8 8 7 8 7 4 6 6 4 5 6 9 10 11 11 12 14 14 16 19 22
38 45 52 61 58 58 56 51 49 42 39 38 44 49 45 42 38 34 31 29 24 18 14 8 9 10 9 8 5 5 6 4 5 4 8 10 11 11 11 14 15 16 18 20
35 42 45 54 60 60 60 55 45 43 45 43 45 50 49 42 33 35 34 32 23 18 14 12 9 10 9 10 8 4 4 4 4 5 5 8 8 9 9 10 11 13 15 18
27 33 42 50 58 59 53 58 54 50 46 43 42 48 48 43 39 37 35 33 30 20 19 13 10 9 11 9 9 6 3 3 3 5 4 5 5 6 8 10 12 12 14 17
27 26 31 38 45 56 59 60 59 53 42 44 42 44 47 45 42 39 34 35 30 22 21 17 14 10 11 10 8 9 7 3 3 4 5 4 3 4 6 10 13 15 15 17
33 24 28 34 37 42 56 61 60 55 46 42 44 40 46 46 46 42 37 35 32 29 24 21 16 12 8 12 10 9 9 6 4 4 6 5 5 4 5 7 11 12 14 16
29 28 30 32 35 37 45 53 59 55 55 45 45 41 42 44 46 43 39 36 33 30 28 23 19 15 12 11 13 10 11 9 8 7 6 6 5 6 7 7 10 10 9 9
20 34 29 33 34 37 41 43 50 54 50 54 45 44 40 42 40 40 37 33 30 32 30 27 24 21 18 15 13 15 12 10 10 11 9 8 8 7 8 8 7 9 9 6

GFSCGP_500_spd_036.txt.gz
Wind_Speed
63 66 62 49 51 61 63 63 63 55 58 60 52 51 49 50 38 40 47 43 37 22 14 15 14 20 21 22 24 29 30 31 32 28 31 32 33 32 31 29 30 26 25 27
71 70 48 46 55 56 60 59 61 58 57 56 59 58 48 55 42 46 46 37 26 19 14 14 20 20 21 20 20 24 26 28 27 27 28 30 31 32 30 30 28 26 27 27
74 58 52 51 51 54 51 55 54 51 51 57 58 58 48 52 48 45 37 31 22 18 16 19 23 21 21 20 22 22 22 24 26 26 27 29 31 30 30 29 27 26 28 27
74 59 60 56 52 49 50 52 49 45 47 51 47 55 48 43 45 36 30 26 21 17 18 20 21 21 19 21 20 20 21 23 23 24 26 28 29 29 28 25 25 27 26 25
73 70 67 62 54 52 46 46 43 43 43 47 49 54 39 39 35 21 31 25 22 16 19 21 20 18 19 19 21 20 20 21 20 22 25 26 26 23 24 25 25 24 23 22
71 69 68 61 57 50 45 47 42 47 45 51 42 47 36 30 12 24 29 25 25 19 18 19 17 19 20 20 21 19 20 19 21 22 23 23 22 21 23 23 21 19 20 15
71 75 70 64 61 55 54 47 47 53 52 50 36 43 33 12 22 23 21 24 23 20 22 20 17 20 20 23 19 18 18 18 19 21 20 19 17 17 17 21 17 15 14 8
67 71 72 70 65 57 54 51 50 52 44 39 37 43 19 22 13 16 21 22 23 19 21 19 20 21 22 18 16 15 16 14 17 17 15 14 16 13 17 17 14 12 8 4
51 66 67 70 63 61 55 52 43 46 44 38 34 33 21 26 19 15 15 14 18 16 18 19 19 20 17 11 12 13 10 13 13 16 12 14 16 12 13 14 11 10 5 0
56 67 59 69 62 59 52 41 45 47 48 39 28 24 23 23 18 18 14 10 15 17 20 19 18 20 12 9 10 8 10 11 12 15 10 12 13 10 12 13 11 7 3 3
63 67 55 59 68 62 59 52 50 48 40 37 29 23 28 18 17 18 12 14 14 17 18 16 18 18 9 8 7 8 9 9 11 13 8 11 11 11 10 9 11 7 4 4
66 69 50 57 62 58 54 48 50 46 43 38 25 30 22 18 14 17 13 17 14 16 16 16 20 12 9 6 6 7 7 8 10 9 8 9 10 7 10 10 11 7 6 5
67 65 49 59 52 58 58 51 50 43 38 36 32 26 19 16 8 19 15 17 13 15 13 17 17 10 9 3 4 5 6 7 8 8 7 11 9 5 7 8 8 6 4 6
63 60 62 35 51 54 56 58 56 50 46 39 35 27 21 10 13 19 17 17 16 15 12 18 13 10 8 1 4 4 4 6 7 7 8 11 8 8 7 8 6 5 2 7
48 69 50 46 60 64 63 58 58 56 49 44 35 32 20 19 20 21 21 20 17 15 13 17 11 10 7 1 3 4 2 6 6 6 7 7 9 10 10 9 8 7 5 8
39 54 64 53 54 55 62 61 57 53 48 46 43 23 27 31 35 31 25 25 19 15 16 16 12 10 7 2 2 3 3 7 7 6 5 8 10 11 10 12 10 11 11 8
39 41 55 58 47 49 53 60 54 48 46 42 38 22 35 38 31 33 31 28 21 19 18 15 13 10 8 4 1 2 3 6 6 5 7 9 11 11 13 13 13 13 13 10
41 34 38 53 42 52 44 52 48 45 40 40 33 32 41 39 38 38 36 31 29 25 19 13 11 11 10 6 2 2 4 5 6 5 6 8 10 10 12 14 15 17 15 11
33 41 39 36 60 43 47 52 51 43 42 34 32 43 48 50 46 41 35 32 30 28 21 17 14 10 11 9 4 2 4 5 6 6 6 8 11 11 12 14 16 17 17 12
35 35 37 42 37 41 44 50 49 48 38 31 36 45 49 46 43 42 40 34 35 31 24 17 13 11 11 11 6 3 5 5 6 6 7 9 10 10 11 12 14 17 20 17
26 35 30 36 40 45 48 50 48 46 47 34 37 47 49 46 44 41 39 36 36 32 26 18 12 12 11 13 10 5 4 5 6 6 6 8 9 9 9 10 12 15 17 20
23 26 29 28 44 46 50 47 51 52 44 37 38 47 47 44 43 39 37 37 36 31 23 18 12 11 13 13 13 9 5 5 5 7 6 5 7 9 10 11 12 14 16 17
13 23 26 27 31 46 49 54 50 44 38 38 39 46 47 45 43 40 39 37 36 32 25 21 17 10 13 12 13 11 8 6 5 6 7 5 5 8 11 12 13 13 15 17
18 18 22 26 28 32 46 52 53 47 39 37 39 41 49 49 43 40 39 38 37 34 28 23 19 12 10 14 12 14 12 8 7 6 7 7 6 7 10 12 13 15 16 17
22 18 16 22 25 28 33 45 52 51 43 37 40 38 48 51 48 44 39 39 37 36 32 25 21 15 11 11 14 13 14 12 10 8 8 8 8 8 9 11 12 14 15 16
13 20 21 23 27 29 31 34 41 49 46 43 38 39 45 49 48 47 42 39 37 36 33 29 23 20 17 13 12 15 14 13 12 11 10 11 10 9 10 11 10 9 10 10

GFSCGP_500_spd_042.txt.gz
Wind_Speed
64 68 63 51 55 54 53 50 53 49 44 46 47 46 37 33 38 38 42 44 40 41 40 39 35 37 33 28 25 22 20 20 17 21 24 27 32 35 38 38 39 41 46 46
73 68 46 56 54 56 54 58 56 50 47 44 43 40 41 39 37 34 43 46 39 36 38 35 34 35 30 24 24 21 19 21 22 27 28 30 32 33 35 35 37 39 44 41
75 56 62 60 62 58 55 56 49 45 45 42 43 46 43 37 40 45 42 39 43 37 36 30 32 34 26 23 22 19 19 22 26 29 32 31 32 34 34 35 37 38 38 38
73 62 67 68 64 60 62 51 51 46 48 48 40 49 41 34 37 41 35 34 36 32 26 26 28 28 23 22 21 19 21 25 27 32 30 32 32 32 34 36 35 31 31 33
65 67 70 70 57 65 55 50 47 46 49 50 49 46 26 30 38 36 34 34 36 28 25 26 33 21 19 21 18 19 22 26 30 28 27 31 28 31 33 31 30 29 30 26
65 66 67 64 67 67 61 53 51 47 44 47 41 42 30 31 28 28 34 34 28 26 25 30 19 17 18 18 16 20 23 27 28 26 27 24 26 30 26 26 29 29 26 21
61 64 64 66 66 67 65 60 55 52 55 55 33 38 37 26 28 37 32 25 20 25 22 26 16 16 17 17 18 20 23 25 25 24 20 22 26 25 25 26 24 23 17 13
41 63 61 64 68 64 67 65 64 62 56 51 43 47 37 27 28 23 21 19 19 22 24 13 17 16 19 17 20 20 22 21 24 16 20 22 25 21 22 20 19 16 13 10
37 37 52 61 67 66 62 64 55 56 53 44 36 31 36 28 21 21 22 20 20 18 16 18 20 19 17 17 17 18 18 21 16 17 20 22 22 19 20 19 16 13 11 7
34 36 41 64 63 70 62 50 59 55 52 42 39 21 12 28 30 31 18 17 25 17 12 19 17 16 16 15 15 16 16 19 14 17 19 22 18 19 16 14 14 12 8 5
46 43 30 42 61 65 56 60 53 52 51 50 44 20 23 28 28 19 17 15 15 10 17 20 19 16 14 13 14 13 17 15 13 17 18 19 17 17 16 16 11 11 9 4
34 32 34 38 44 43 41 53 55 57 53 50 37 27 32 33 28 20 21 17 18 13 15 20 18 15 11 11 13 12 16 12 13 15 17 18 16 17 14 12 9 9 13 4
37 25 32 30 52 54 55 51 57 57 45 41 40 29 31 29 31 24 27 21 19 14 13 17 15 12 10 12 11 13 12 10 13 13 16 16 18 13 10 10 10 10 12 6
32 32 30 31 45 50 47 49 47 50 53 43 37 25 32 22 19 20 24 27 17 16 15 17 12 9 9 10 10 10 10 9 11 12 13 13 10 8 8 9 9 11 9 6
22 30 39 51 51 41 47 55 47 48 45 48 30 30 23 23 23 35 31 21 19 18 17 13 10 8 9 7 8 8 8 8 8 9 11 9 10 9 8 7 9 12 11 8
17 18 39 49 39 47 49 56 51 48 36 42 31 37 34 29 37 28 27 23 22 21 18 15 12 10 8 7 7 7 6 6 6 6 6 6 6 7 7 9 8 10 10 8
9 21 28 42 30 24 50 57 49 42 36 42 31 31 35 35 25 26 31 28 25 23 18 16 15 12 8 7 8 5 5 5 3 3 4 4 6 8 10 11 10 10 8 3
10 17 28 30 24 24 44 43 48 43 31 45 32 38 32 45 35 27 32 30 27 21 19 18 15 11 8 9 7 4 5 4 3 3 3 3 5 8 9 12 13 10 8 3
10 10 19 26 27 17 46 49 45 46 46 50 45 27 34 35 35 33 33 35 32 29 23 20 17 11 9 9 8 4 5 5 3 3 1 2 5 7 9 11 15 12 10 6
12 11 13 41 22 17 25 52 38 46 54 55 50 46 53 47 40 40 37 35 31 29 27 24 18 12 10 11 10 5 5 6 4 2 0 2 5 8 9 11 15 14 10 7
10 13 16 35 28 18 29 50 41 45 47 53 50 51 52 55 52 47 41 38 33 27 28 25 20 14 11 11 11 7 5 7 6 4 2 0 3 6 8 10 12 16 12 10
10 14 12 25 39 16 23 54 54 46 29 46 51 52 54 48 41 36 33 38 34 30 28 22 17 15 13 12 13 9 5 6 7 6 3 2 3 5 8 10 12 15 17 13
13 13 14 17 30 6 17 40 40 50 51 32 41 42 42 40 38 39 35 38 34 33 28 22 19 18 15 13 14 11 7 5 6 7 5 4 4 5 8 11 11 12 13 16
14 15 17 21 23 30 11 20 32 29 45 43 29 38 37 40 43 44 37 39 41 35 31 25 21 18 14 13 13 14 10 6 5 6 7 6 7 7 7 10 12 13 14 15
12 18 21 21 24 28 32 18 29 32 30 35 43 36 32 37 44 45 38 40 40 37 33 26 23 19 13 11 12 13 13 10 6 6 7 9 9 9 8 9 12 13 14 16
12 20 19 17 20 18 27 42 28 32 28 33 38 36 33 38 39 40 40 43 40 38 35 28 26 22 16 11 12 12 13 12 9 6 8 8 9 9 10 11 8 7 7 8

GFSCGP_500_spd_045.txt.gz
Wind_Speed
65 65 60 51 53 49 47 52 50 48 45 45 46 44 37 33 35 33 29 26 29 35 36 39 40 37 28 29 30 32 25 24 25 21 20 23 26 29 32 33 36 37 38 39
71 63 49 53 51 55 55 55 52 49 48 44 40 46 41 35 33 31 30 30 26 31 37 36 33 35 26 29 27 27 23 25 23 21 23 27 29 32 32 33 34 35 38 39
71 55 61 60 58 59 53 51 51 46 48 41 43 49 42 30 27 27 34 30 29 34 32 28 27 31 27 28 25 24 21 25 22 21 25 28 29 30 32 32 33 34 32 32
68 61 64 62 65 62 56 53 51 49 50 37 44 53 42 27 22 28 29 27 32 27 27 22 29 28 31 20 21 22 21 22 20 24 27 28 28 30 30 31 31 30 31 30
62 62 67 71 64 63 58 54 54 53 52 52 50 44 23 28 24 22 27 33 29 27 24 27 29 29 23 19 22 21 20 18 20 24 27 27 28 26 28 30 28 29 28 27
61 63 67 64 64 66 64 60 55 52 55 58 48 45 21 26 22 22 27 27 25 24 27 31 30 27 19 20 18 18 17 17 22 24 25 26 24 25 27 26 26 26 27 23
57 57 63 61 66 66 66 63 60 59 58 54 45 48 27 20 19 23 28 26 24 23 27 25 26 15 17 18 13 16 15 19 22 21 23 22 24 24 26 22 23 25 24 19
46 54 57 59 62 63 67 65 66 65 61 53 51 45 35 23 27 28 16 16 21 20 19 16 8 16 18 12 15 15 16 20 20 20 20 22 21 24 22 21 22 22 20 15
40 48 47 57 62 61 59 65 59 61 60 58 55 46 38 30 24 25 20 23 21 17 12 11 14 18 14 14 16 14 16 18 17 19 20 20 22 24 20 20 19 19 17 14
32 41 42 43 57 65 62 54 60 61 60 61 54 47 39 16 13 23 18 19 18 15 9 13 15 17 14 17 14 13 16 15 16 17 18 19 23 20 17 18 19 19 13 12
33 37 32 45 52 57 61 62 60 63 60 55 51 49 29 24 22 22 12 17 15 7 14 16 16 18 16 14 10 13 14 12 16 16 17 19 22 19 18 17 18 16 13 18
24 25 33 44 47 52 64 64 59 57 61 51 48 40 25 19 19 21 16 15 14 10 12 16 19 20 18 10 10 12 9 12 15 15 16 18 18 20 17 13 14 13 12 12
16 24 25 41 39 40 52 63 53 48 54 57 52 37 31 20 20 21 23 29 21 14 15 14 16 22 14 9 11 8 8 13 13 14 16 15 14 13 13 11 13 9 10 11
12 18 26 35 37 47 49 60 62 57 58 57 54 45 33 22 23 17 26 26 19 16 17 15 17 16 11 10 7 5 8 12 11 13 13 13 10 13 14 13 10 10 10 10
12 13 22 30 34 40 49 62 68 61 60 61 49 33 25 20 24 23 24 24 23 23 16 17 17 14 10 6 6 5 8 10 8 11 11 8 10 11 11 12 12 11 9 11
10 7 15 27 32 38 49 61 61 64 62 61 55 40 27 22 30 27 27 26 22 19 22 19 17 13 7 6 6 5 8 7 7 8 5 6 8 9 10 12 12 11 7 9
9 3 5 18 31 32 45 56 51 53 55 59 44 41 35 35 31 31 30 31 27 22 23 19 17 12 7 6 7 6 7 6 6 6 5 6 6 8 9 12 14 10 8 3
5 7 4 4 15 31 27 51 51 46 48 50 44 42 34 37 36 33 36 38 29 28 26 22 17 10 7 6 7 5 6 5 4 6 5 5 6 7 9 13 13 9 7 5
5 3 4 7 13 26 31 38 50 51 58 52 41 44 30 35 39 40 44 37 38 32 29 21 17 11 7 7 8 6 5 5 3 3 3 5 6 8 10 12 12 10 8 7
4 3 3 15 17 14 28 44 47 54 49 39 35 47 35 38 42 47 41 40 34 33 30 24 19 12 7 7 8 6 4 4 3 2 3 5 7 8 9 12 13 9 9 10
5 10 5 18 7 19 36 53 38 45 46 32 40 44 47 39 47 43 41 36 35 32 26 22 18 11 6 6 8 7 3 4 3 2 2 4 6 9 9 12 14 14 12 8
8 10 6 6 20 14 12 49 36 42 59 47 47 51 48 44 37 43 41 38 31 27 23 21 18 10 8 6 9 9 3 2 4 3 1 2 4 8 9 12 16 18 17 18
7 12 9 14 3 19 18 32 45 51 27 54 51 52 46 45 41 44 43 39 31 27 22 20 18 14 9 7 10 12 5 1 3 3 2 1 4 7 10 11 13 16 17 17
5 5 11 2 10 12 8 25 37 28 40 43 53 41 38 36 44 45 44 39 33 28 26 25 21 14 10 8 11 13 9 4 2 4 4 2 4 6 10 11 12 14 15 16
6 5 9 9 18 17 16 18 23 24 29 35 40 43 36 40 38 43 39 38 35 31 32 26 22 15 11 10 13 15 13 8 4 4 5 5 5 6 8 12 14 16 16 17
12 12 11 9 14 18 20 23 3 23 32 36 30 31 36 41 41 44 43 39 37 32 31 26 21 16 14 12 14 13 15 12 8 5 5 6 6 7 8 9 10 10 11 12

GFSCGP_500_spd_048.txt.gz
Wind_Speed
67 67 62 55 55 54 53 54 54 49 49 49 48 48 41 33 36 37 28 26 27 22 26 31 24 25 28 30 30 33 26 30 29 25 27 27 25 24 26 29 30 31 33 35
71 65 55 55 60 58 58 56 50 47 45 39 38 43 40 38 38 34 25 30 22 26 30 26 24 25 23 26 31 30 27 27 24 24 25 24 24 26 30 31 32 32 32 36
70 61 60 62 63 60 57 56 50 51 46 41 43 48 44 38 36 28 29 24 26 29 25 20 21 21 21 26 29 28 29 24 23 25 22 24 25 28 31 30 30 29 32 33
70 64 64 65 66 64 60 54 51 50 47 46 43 54 44 30 30 27 26 24 27 26 21 20 22 23 25 28 29 26 27 21 24 24 21 23 25 29 28 25 26 29 27 28
63 66 67 70 65 66 57 58 54 54 51 50 49 53 28 28 25 22 21 27 26 19 16 17 22 25 31 28 23 27 24 22 23 21 21 22 26 26 22 24 25 24 24 25
60 60 60 65 63 66 63 63 62 58 55 59 44 46 22 24 17 16 24 27 20 17 18 23 25 27 30 21 21 27 22 22 22 19 20 23 25 21 22 23 24 21 23 24
50 55 58 60 64 64 63 65 64 63 64 50 45 45 23 24 15 23 29 23 18 17 19 24 20 24 16 15 20 21 21 21 18 19 21 24 21 22 23 24 20 20 20 23
36 44 56 60 64 62 65 62 64 66 63 58 57 47 32 31 22 26 27 22 21 21 19 14 14 16 17 19 18 18 19 17 17 19 21 22 20 22 24 20 16 17 18 18
23 35 43 50 55 61 58 64 62 64 64 64 57 48 42 34 23 31 27 24 15 20 23 13 16 18 18 20 18 18 16 15 16 19 20 19 20 22 23 17 15 17 19 16
28 31 30 36 52 57 57 57 59 64 64 65 57 50 42 34 30 30 28 22 16 16 12 16 15 20 20 20 18 15 15 15 16 18 19 17 19 21 20 16 16 15 16 14
30 38 33 32 42 48 56 57 59 59 63 63 58 53 41 34 33 31 25 14 8 6 11 16 16 19 19 20 14 12 15 15 15 17 17 16 18 18 19 15 12 12 12 11
20 28 27 27 37 44 50 57 60 61 62 61 61 54 47 33 40 38 31 13 13 2 11 20 21 17 19 18 12 14 14 14 14 16 15 16 16 14 15 11 10 11 9 10
20 22 18 19 40 48 49 57 61 63 61 62 62 49 36 37 34 35 27 23 13 6 13 16 13 13 20 17 14 15 13 13 13 14 13 14 13 11 14 12 12 10 10 10
20 12 16 18 27 45 52 48 58 66 66 61 59 48 36 45 43 38 24 18 15 11 16 19 14 16 19 17 15 13 13 11 13 10 12 12 9 11 12 10 10 10 10 7
13 13 16 17 18 41 52 50 56 65 66 65 54 46 47 44 40 34 27 22 14 15 19 15 15 15 15 16 13 12 10 11 9 10 10 9 6 7 10 9 11 9 8 7
10 7 8 5 13 30 42 48 52 57 66 61 57 51 42 37 43 41 33 26 18 19 23 18 15 15 16 14 11 11 8 9 6 8 8 8 7 7 10 10 11 9 6 5
8 9 5 4 8 17 32 47 49 51 62 61 60 52 44 47 42 41 32 25 18 21 21 22 17 18 17 13 10 10 7 7 6 6 8 8 7 7 10 11 11 7 4 1
9 6 5 3 4 11 27 33 42 42 57 58 56 46 57 46 35 39 33 28 24 24 23 20 21 19 17 12 11 9 5 5 4 5 6 6 5 7 10 12 8 7 6 6
4 5 4 11 7 11 22 29 32 38 53 49 50 49 54 37 35 31 31 35 29 31 25 24 24 18 16 12 11 9 5 3 3 4 4 4 7 8 10 11 6 6 9 7
3 7 4 6 4 6 18 23 32 43 51 41 51 60 45 45 42 40 36 31 30 31 29 28 22 19 15 12 12 9 4 2 2 2 3 5 7 7 9 10 7 8 9 8
7 10 11 4 6 6 19 28 46 50 51 43 59 61 51 45 44 40 40 35 34 36 31 28 24 21 16 13 11 9 3 1 3 2 3 4 7 7 8 10 10 11 11 8
11 10 19 5 3 5 13 32 50 44 38 46 63 53 52 52 39 50 43 36 37 36 34 30 27 20 16 13 13 10 4 1 4 3 3 2 6 7 9 13 15 18 21 22
8 9 9 13 10 11 9 36 39 46 53 47 72 57 53 50 38 38 39 39 37 37 35 32 26 19 17 15 14 12 7 2 4 4 3 3 5 7 7 10 11 15 18 18
9 12 14 16 17 10 14 30 32 46 43 35 61 56 42 52 50 45 42 37 35 37 36 29 24 20 16 16 16 15 10 5 4 5 4 4 6 8 10 12 13 15 18 20
13 9 11 10 16 7 15 16 27 38 45 48 54 50 42 54 50 42 36 39 35 30 28 31 30 25 21 18 18 18 14 9 5 6 5 6 8 9 12 16 17 17 17 18
10 14 12 7 11 16 14 9 12 33 36 46 50 52 41 43 43 48 47 43 38 35 33 32 37 30 24 20 19 20 17 12 8 8 8 7 9 10 11 12 12 12 14 13